Waarnemingen

Advertentie
Mijn weer
Fürstenzell, Duitsland (10895): temperatuur & dauwpunt: 20.05.2017 17:00:00 - 26.05.2017 17:00:00 (CEST)Fürstenzell, Duitsland (10895): temperatuur 5cm & temperatuur -5cm: 20.05.2017 17:00:00 - 26.05.2017 17:00:00 (CEST)Fürstenzell, Duitsland (10895): temperatuur -20cm & temperatuur -100cm: 20.05.2017 17:00:00 - 26.05.2017 17:00:00 (CEST)Fürstenzell, Duitsland (10895): windsnelheid & windstoten: 20.05.2017 17:00:00 - 26.05.2017 17:00:00 (CEST)Fürstenzell, Duitsland (10895): windrichting: 20.05.2017 17:00:00 - 26.05.2017 17:00:00 (CEST)Fürstenzell, Duitsland (10895): luchtdruk: 20.05.2017 17:00:00 - 26.05.2017 17:00:00 (CEST)Fürstenzell, Duitsland (10895): zicht: 20.05.2017 17:00:00 - 26.05.2017 17:00:00 (CEST)Fürstenzell, Duitsland (10895): Zonneschijnduur: 20.05.2017 17:00:00 - 26.05.2017 17:00:00 (CEST)Fürstenzell, Duitsland (10895): neerslag: 20.05.2017 17:00:00 - 26.05.2017 17:00:00 (CEST)
Datum & Tijd tt [°C] td [°C] tt 5cm [°C] tt -5cm [°C] tt -20cm [°C] tt -100cm [°C] ff [km/u] ff [kn] fx [km/u] fx [kn] dd ppp [hPa] vv [km] sd [min] rr [mm]
26.05.2017 17:00:00 - - - - - - - - - - - - - - -
26.05.2017 16:00:00 21,7 8,9 25,2 27,1 18,5 13,9 14 8 23 12 WZW 1018,6 34 60 0,0
26.05.2017 15:00:00 20,9 8,0 25,9 26,8 17,8 13,9 11 6 22 12 WZW 1019,3 43 60 0,0
26.05.2017 14:00:00 20,9 8,8 26,4 25,7 17,1 13,9 9 5 24 13 WZW 1019,6 53 60 0,0
26.05.2017 13:00:00 19,2 7,7 24,7 24,0 16,5 13,9 9 5 21 12 W 1020,4 40 56 0,0
26.05.2017 12:00:00 17,2 7,9 19,7 22,6 16,0 13,9 13 7 24 13 W 1021,0 47 55 0,0
26.05.2017 11:00:00 17,4 8,1 22,7 20,8 15,5 13,9 8 5 18 10 W 1021,2 32 60 0,0
26.05.2017 10:00:00 16,2 8,1 19,5 18,4 15,1 13,9 10 5 16 9 NO 1021,6 57 60 0,0
26.05.2017 09:00:00 14,0 7,9 16,7 16,0 15,0 13,9 10 5 19 10 NNO 1022,0 27 60 0,0
26.05.2017 08:00:00 12,1 8,1 14,0 13,8 15,1 13,9 10 6 16 9 NO 1022,0 18 60 0,0
26.05.2017 07:00:00 10,7 7,7 11,0 12,2 15,3 13,9 9 5 13 7 NO 1022,0 37 52 0,0
26.05.2017 06:00:00 9,4 7,5 9,1 11,8 15,6 13,9 9 5 12 7 NO 1022,3 34 3 0,0
26.05.2017 05:00:00 8,4 7,5 7,5 12,0 15,9 13,9 10 5 11 6 NO 1022,3 22 0 0,0
26.05.2017 04:00:00 9,5 8,5 8,1 12,5 16,2 13,9 8 4 9 5 NO 1022,0 23 0 0,0
26.05.2017 03:00:00 10,0 9,1 9,1 12,9 16,6 13,9 8 5 9 5 NO 1022,0 21 0 0,0
26.05.2017 02:00:00 10,5 8,6 9,3 13,2 16,9 13,8 7 4 8 4 NO 1022,0 36 0 0,0
26.05.2017 01:00:00 11,2 8,9 8,8 13,9 17,3 13,8 6 3 7 4 NO 1022,2 38 0 0,0
26.05.2017 00:00:00 12,4 7,5 10,4 14,6 17,6 13,8 4 2 10 6 N 1021,9 60 0 0,0
25.05.2017 23:00:00 13,7 7,0 10,5 15,1 17,9 13,8 9 5 10 6 W 1021,5 67 0 0,0
25.05.2017 22:00:00 13,7 7,3 8,9 16,3 18,2 13,8 8 4 9 5 W 1021,4 70 0 0,0
25.05.2017 21:00:00 14,6 7,8 13,2 17,3 18,4 13,8 8 4 13 7 W 1021,0 66 13 0,0
25.05.2017 20:00:00 15,9 7,3 15,5 18,4 18,5 13,8 9 5 21 11 WNW 1020,4 70 49 0,0
25.05.2017 19:00:00 16,7 6,5 17,6 19,5 18,5 13,8 11 6 19 10 W 1020,5 57 39 0,0
25.05.2017 18:00:00 16,5 7,2 18,3 20,4 18,4 13,8 10 6 22 12 NW 1020,9 63 44 0,0
25.05.2017 17:00:00 16,6 7,7 19,2 20,8 18,3 13,8 15 8 24 13 NW 1021,1 55 15 0,0
25.05.2017 16:00:00 15,7 7,6 17,6 21,5 18,0 13,8 16 9 29 16 WNW 1021,5 59 28 0,0
25.05.2017 15:00:00 15,9 6,0 19,5 22,0 17,7 13,8 16 9 29 15 W 1021,6 57 41 0,0
25.05.2017 14:00:00 15,2 5,7 18,2 21,7 17,3 13,8 17 9 29 16 NW 1022,1 45 32 0,0
25.05.2017 13:00:00 15,0 6,9 17,7 21,3 16,9 13,8 17 9 29 16 WNW 1022,3 45 24 0,0
25.05.2017 12:00:00 15,1 6,3 20,0 22,5 16,3 13,8 15 8 23 12 WNW 1022,4 33 60 0,0
25.05.2017 11:00:00 14,2 7,5 18,3 20,9 15,8 13,8 10 5 18 10 NW 1022,8 28 60 0,0
25.05.2017 10:00:00 13,0 8,1 18,0 18,3 15,5 13,8 9 5 16 8 WNW 1023,1 23 53 0,0
25.05.2017 09:00:00 11,8 8,9 14,4 16,0 15,4 13,8 8 4 12 7 NO 1023,2 21 59 0,0
25.05.2017 08:00:00 10,6 9,2 11,6 13,7 15,5 13,8 9 5 16 8 NO 1023,4 16 28 0,0
25.05.2017 07:00:00 9,1 9,1 9,7 12,7 15,7 13,7 12 6 15 8 NO 1023,5 0,6 0 0,0
25.05.2017 06:00:00 9,1 9,1 9,3 12,6 16,0 13,7 5 3 14 8 NO 1023,3 0,2 0 0,0
25.05.2017 05:00:00 9,3 9,3 9,3 12,7 16,2 13,7 8 4 9 5 W 1022,9 4,1 0 0,0
25.05.2017 04:00:00 9,2 9,2 9,1 12,8 16,5 13,7 4 2 6 3 WZW 1023,0 0,2 0 0,0
25.05.2017 03:00:00 9,6 9,2 9,1 12,9 16,8 13,7 4 2 12 6 W 1022,8 17 0 0,0
25.05.2017 02:00:00 9,7 9,2 8,7 13,3 17,2 13,7 7 4 19 10 WNW 1022,7 21 0 0,0
25.05.2017 01:00:00 10,0 10,0 10,0 13,9 17,5 13,7 10 6 14 8 WNW 1022,4 7 0 0,0
25.05.2017 00:00:00 10,1 10,0 9,8 14,4 17,9 13,7 8 5 23 13 NW 1022,4 13 0 0,0
24.05.2017 23:00:00 10,5 9,9 10,3 14,8 18,3 13,7 17 9 36 20 W 1021,9 36 0 1,2
24.05.2017 22:00:00 11,0 9,2 10,4 15,5 18,6 13,7 13 7 38 20 NNW 1021,6 13 0 6,5
24.05.2017 21:00:00 10,2 9,4 10,2 17,1 18,9 13,7 26 14 53 28 N 1022,1 2,5 0 1,4
24.05.2017 20:00:00 15,5 8,5 15,6 18,5 19,1 13,6 17 9 33 18 W 1019,8 59 1 0,0
24.05.2017 19:00:00 15,5 7,6 15,7 19,2 19,2 13,6 22 12 46 25 WNW 1019,9 56 0 0,0
24.05.2017 18:00:00 16,0 6,7 16,6 20,4 19,1 13,6 33 18 51 28 W 1019,9 64 0 0,0
24.05.2017 17:00:00 16,6 6,5 17,8 21,6 19,0 13,6 27 15 52 28 WNW 1019,7 50 3 0,0
24.05.2017 16:00:00 17,2 6,9 19,3 22,4 18,7 13,6 25 13 43 23 WNW 1019,6 38 26 0,0
24.05.2017 15:00:00 16,5 5,9 19,2 22,7 18,3 13,6 31 17 51 28 WNW 1019,8 31 43 0,0
24.05.2017 14:00:00 16,2 7,7 21,0 21,5 18,1 13,6 30 16 46 25 W 1020,2 51 25 0,0
24.05.2017 13:00:00 15,4 7,2 17,8 20,6 18,0 13,6 33 18 50 27 W 1020,4 38 24 0,0
24.05.2017 12:00:00 15,2 7,6 17,1 19,0 17,9 13,6 32 17 50 27 W 1020,7 28 0 0,0
24.05.2017 11:00:00 15,2 7,5 16,4 18,9 17,8 13,5 34 18 49 26 W 1020,4 38 0 0,0
24.05.2017 10:00:00 15,8 10,1 17,9 18,2 17,8 13,5 25 14 50 27 WNW 1019,9 34 0 0,0
24.05.2017 09:00:00 15,8 10,7 17,1 17,6 17,9 13,5 28 15 44 24 W 1019,7 31 0 0,0
24.05.2017 08:00:00 15,8 11,4 16,3 17,0 18,0 13,5 19 11 30 16 W 1018,8 25 0 0,0
24.05.2017 07:00:00 15,8 11,6 15,8 16,7 18,2 13,5 16 9 26 14 W 1018,2 25 0 0,0
24.05.2017 06:00:00 15,9 11,5 15,5 16,6 18,4 13,5 16 9 27 14 WNW 1017,7 24 0 0,0
24.05.2017 05:00:00 16,0 11,4 15,4 16,8 18,7 13,5 16 9 23 12 W 1017,4 26 0 0,0
24.05.2017 04:00:00 16,1 11,0 15,0 17,0 18,9 13,5 14 8 19 10 W 1017,3 31 0 0,0
24.05.2017 03:00:00 16,2 10,9 15,4 17,4 19,2 13,5 10 5 14 8 WZW 1017,3 31 0 0,0
24.05.2017 02:00:00 16,4 10,8 15,5 17,7 19,5 13,5 11 6 16 8 ZW 1017,4 29 0 0,0
24.05.2017 01:00:00 16,5 10,5 15,1 18,2 19,8 13,5 8 5 15 8 ZZW 1017,7 25 0 0,0
24.05.2017 00:00:00 17,0 9,8 15,9 18,6 20,1 13,5 7 4 13 7 ZZW 1017,9 28 0 0,0
23.05.2017 23:00:00 18,1 9,2 16,5 19,2 20,4 13,5 9 5 10 6 WZW 1017,7 40 0 0,0
23.05.2017 22:00:00 18,7 8,8 13,6 20,0 20,7 13,4 6 4 11 6 W 1017,2 40 0 0,0
23.05.2017 21:00:00 19,1 8,9 16,2 21,3 21,0 13,4 8 4 10 5 W 1016,6 30 0 0,0
23.05.2017 20:00:00 20,3 8,8 19,1 22,7 21,1 13,4 7 4 21 11 W 1016,3 43 0 0,0
23.05.2017 19:00:00 21,0 7,8 21,0 24,0 21,0 13,4 16 9 37 20 W 1016,2 44 29 0,0
23.05.2017 18:00:00 21,7 9,4 23,1 25,6 20,8 13,4 19 11 35 19 WNW 1016,2 40 59 0,0
23.05.2017 17:00:00 21,9 9,6 24,1 26,5 20,5 13,4 18 10 36 20 W 1015,9 34 55 0,0
23.05.2017 16:00:00 21,6 9,4 23,4 28,0 19,9 13,4 24 13 40 21 WNW 1016,2 25 60 0,0
23.05.2017 15:00:00 22,3 10,0 27,1 28,0 19,3 13,4 23 12 36 20 W 1016,1 24 58 0,0
23.05.2017 14:00:00 21,1 10,6 26,2 27,2 18,6 13,4 21 12 37 20 W 1016,5 20 57 0,0
23.05.2017 13:00:00 21,3 10,4 27,3 26,7 17,9 13,4 22 12 35 19 WZW 1016,7 23 58 0,0
23.05.2017 12:00:00 19,7 11,9 25,4 24,0 17,3 13,4 12 6 24 13 W 1017,1 26 56 0,0
23.05.2017 11:00:00 19,5 12,0 25,9 22,8 16,9 13,4 12 7 20 11 WZW 1017,1 15 56 0,0
23.05.2017 10:00:00 17,5 11,5 20,7 20,1 16,6 13,4 8 4 12 6 ZZW 1017,6 20 57 0,0
23.05.2017 09:00:00 15,2 11,0 18,3 17,4 16,5 13,4 7 4 11 6 ZW 1017,8 16 54 0,0
23.05.2017 08:00:00 15,0 9,8 16,4 15,5 16,7 13,4 5 3 8 4 O 1017,3 22 60 0,0
23.05.2017 07:00:00 12,4 10,2 12,6 13,9 16,9 13,4 6 4 8 5 NO 1017,7 20 59 0,0
23.05.2017 06:00:00 11,1 10,0 9,2 13,5 17,3 13,3 5 3 9 5 ONO 1017,4 17 2 0,0
23.05.2017 05:00:00 12,0 9,9 7,0 14,0 17,7 13,3 0 0 8 4 N 1017,2 19 0 0,0
23.05.2017 04:00:00 13,5 10,0 9,1 14,6 18,0 13,3 5 3 8 4 ZZW 1016,6 23 0 0,0
23.05.2017 03:00:00 14,0 9,1 7,7 15,3 18,4 13,3 4 2 9 5 ZZO 1016,8 28 0 0,0
23.05.2017 02:00:00 15,2 9,1 9,1 16,1 18,8 13,3 4 2 9 5 ZO 1016,4 41 0 0,0
23.05.2017 01:00:00 14,4 10,7 12,1 16,7 19,2 13,3 8 4 8 5 NO 1016,9 26 0 0,0
23.05.2017 00:00:00 16,1 10,3 11,6 17,4 19,5 13,3 6 3 10 5 NO 1016,5 36 0 0,0
22.05.2017 23:00:00 17,0 10,0 13,8 18,4 19,9 13,3 9 5 11 6 NW 1016,4 31 0 0,0
22.05.2017 22:00:00 18,0 9,8 11,3 19,6 20,2 13,3 5 3 9 5 ZZW 1016,2 34 0 0,0
22.05.2017 21:00:00 18,6 10,2 13,9 21,3 20,3 13,3 4 2 13 7 ZZW 1015,6 34 19 0,0
22.05.2017 20:00:00 20,5 10,5 19,7 22,9 20,3 13,3 6 3 13 7 ZZW 1015,4 45 60 0,0
22.05.2017 19:00:00 21,2 10,4 21,5 24,5 20,1 13,3 5 3 12 7 Z 1015,4 32 60 0,0
22.05.2017 18:00:00 21,7 10,2 23,1 25,8 19,7 13,3 5 3 14 8 ZO 1015,3 44 60 0,0
22.05.2017 17:00:00 21,6 10,2 24,4 26,3 19,3 13,3 10 5 16 9 ONO 1015,8 27 57 0,0
22.05.2017 16:00:00 20,8 9,6 24,1 25,4 18,8 13,3 3 1 8 5 ZZO 1016,5 47 8 0,0
22.05.2017 15:00:00 20,1 9,3 23,7 26,7 18,0 13,3 5 3 15 8 ZW 1017,2 44 32 0,0
22.05.2017 14:00:00 20,7 9,6 25,9 27,2 17,2 13,3 8 4 14 8 ZW 1017,6 31 60 0,0
22.05.2017 13:00:00 19,1 7,6 24,9 25,2 16,5 13,3 5 3 17 9 Z 1018,3 41 60 0,0
22.05.2017 12:00:00 18,7 10,1 23,3 21,7 16,0 13,3 7 4 22 12 ZZO 1018,7 47 40 0,0
22.05.2017 11:00:00 18,0 7,9 21,3 20,4 15,5 13,3 10 5 24 13 OZO 1019,2 46 60 0,0
22.05.2017 10:00:00 16,7 7,1 18,8 18,3 15,2 13,3 14 7 24 13 O 1019,3 38 58 0,0
22.05.2017 09:00:00 15,3 8,9 18,3 16,0 15,1 13,3 16 8 21 11 ONO 1019,8 25 60 0,0
22.05.2017 08:00:00 12,3 8,0 14,0 13,6 15,2 13,3 13 7 17 9 NO 1020,6 19 60 0,0
22.05.2017 07:00:00 9,7 8,0 9,6 12,0 15,5 13,3 7 4 10 5 NNO 1021,1 12 50 0,0
22.05.2017 06:00:00 8,3 7,8 7,3 11,8 15,8 13,3 7 4 9 5 NO 1021,4 9 11 0,0
22.05.2017 05:00:00 8,2 8,0 7,4 12,2 16,1 13,3 9 5 11 6 NO 1021,5 6 0 0,0
22.05.2017 04:00:00 9,0 8,2 7,9 12,6 16,5 13,3 8 4 10 5 NO 1021,9 13 0 0,0
22.05.2017 03:00:00 9,0 8,4 7,8 13,2 16,8 13,3 8 5 10 5 NO 1022,7 11 0 0,0
22.05.2017 02:00:00 9,6 8,7 8,6 13,7 17,1 13,2 8 4 10 5 NO 1023,1 13 0 0,0
22.05.2017 01:00:00 10,3 9,1 9,3 14,4 17,5 13,2 9 5 11 6 NO 1023,3 16 0 0,0
22.05.2017 00:00:00 11,4 9,1 10,2 15,2 17,8 13,2 8 4 10 5 NO 1023,5 23 0 0,0
21.05.2017 23:00:00 13,0 9,7 11,0 16,0 18,1 13,2 6 3 9 5 ONO 1023,5 30 0 0,0
21.05.2017 22:00:00 13,4 7,7 8,4 17,0 18,3 13,2 2 1 5 3 ONO 1023,5 39 0 0,0
21.05.2017 21:00:00 14,9 8,0 11,0 18,7 18,4 13,2 0 0 4 2 N 1023,1 44 0 0,0
21.05.2017 20:00:00 15,7 8,1 13,6 19,8 18,4 13,2 3 2 5 3 ZO 1023,2 42 0 0,0
21.05.2017 19:00:00 16,1 9,4 17,0 21,1 18,1 13,2 6 3 14 7 O 1023,4 39 9 0,0
21.05.2017 18:00:00 17,4 7,8 19,7 22,6 17,8 13,2 5 3 14 7 ZO 1023,4 50 60 0,0
21.05.2017 17:00:00 17,1 7,7 20,2 21,7 17,4 13,2 4 2 11 6 ZZO 1024,2 33 47 0,0
21.05.2017 16:00:00 17,0 7,6 22,3 21,3 17,1 13,2 5 3 10 5 ZW 1024,7 26 15 0,0
21.05.2017 15:00:00 15,4 9,0 17,6 19,9 16,9 13,2 5 3 12 6 ZO 1025,7 34 1 0,0
21.05.2017 14:00:00 15,6 7,8 19,4 19,2 16,6 13,2 6 3 10 6 ZZO 1026,0 33 0 0,0
21.05.2017 13:00:00 14,8 8,8 16,1 18,7 16,3 13,1 3 2 8 5 ZZO 1026,4 33 0 0,0
21.05.2017 12:00:00 15,2 7,6 17,9 18,9 16,1 13,1 4 2 10 5 ZW 1026,3 41 1 0,0
21.05.2017 11:00:00 14,9 8,2 18,2 17,2 15,9 13,1 4 2 10 5 ZW 1026,3 41 0 0,0
21.05.2017 10:00:00 13,5 8,9 16,7 15,7 15,9 13,1 3 1 8 5 WZW 1026,6 44 0 0,0
21.05.2017 09:00:00 11,9 8,7 13,4 14,2 16,0 13,1 5 3 18 10 NW 1026,7 46 0 0,0
21.05.2017 08:00:00 11,2 8,1 11,8 13,8 16,2 13,1 11 6 24 13 WNW 1026,3 39 0 0,0
21.05.2017 07:00:00 10,8 7,9 10,9 13,6 16,4 13,1 17 9 23 12 WNW 1025,9 52 0 0,0
21.05.2017 06:00:00 10,9 7,9 10,4 13,6 16,6 13,1 13 7 18 10 WNW 1025,6 48 0 0,0
21.05.2017 05:00:00 11,1 8,2 10,8 14,0 16,8 13,1 11 6 17 9 WNW 1025,2 46 0 0,0
21.05.2017 04:00:00 11,3 8,4 11,0 14,3 17,1 13,0 11 6 14 7 WNW 1025,2 47 0 0,0
21.05.2017 03:00:00 11,3 8,5 10,4 14,7 17,3 13,0 10 6 16 8 WNW 1025,0 48 0 0,1
21.05.2017 02:00:00 12,3 7,4 12,0 15,0 17,6 13,0 12 6 19 10 NW 1025,0 51 0 0,0
21.05.2017 01:00:00 12,5 7,0 12,1 15,4 17,8 13,0 14 7 21 11 WNW 1024,7 62 0 0,0
21.05.2017 00:00:00 12,9 6,6 12,6 15,8 18,1 13,0 14 8 19 10 WNW 1024,3 62 0 0,0
20.05.2017 23:00:00 13,1 6,5 12,7 16,3 18,4 13,0 13 7 20 11 WNW 1024,3 70 0 0,0
20.05.2017 22:00:00 13,2 6,9 12,9 16,9 18,6 12,9 11 6 16 9 WNW 1023,8 70 0 0,0
20.05.2017 21:00:00 13,7 6,4 13,2 17,6 18,8 12,9 10 6 15 8 W 1022,9 65 0 0,0
20.05.2017 20:00:00 14,4 5,9 14,1 18,7 18,9 12,9 13 7 26 14 W 1022,2 70 9 0,0
20.05.2017 19:00:00 15,3 6,0 15,8 20,1 18,8 12,9 15 8 26 14 WNW 1021,5 57 34 0,0
20.05.2017 18:00:00 15,7 6,8 18,3 21,2 18,6 12,9 16 9 29 16 W 1021,3 59 42 0,0
20.05.2017 17:00:00 15,5 6,8 18,4 21,7 18,3 12,8 20 11 35 19 W 1021,3 55 45 0,0

tt = temperatuur
td = dauwpunt
tt 5cm = temperatuur 5cm
tt -5cm = temperatuur -5cm
tt -20cm = temperatuur -20cm
tt -100cm = temperatuur -100cm
ff = windsnelheid
fx = windstoten
dd = windrichting
ppp = luchtdruk
vv = zicht
sd = Zonneschijnduur
rr = neerslag

Weerstations in de omgeving